This is the latest recevied weather packets stored in our database for station/object 4S6DRJ-13. If no packets are shown the sender has not sent any weather packets the latest 10 day(s).
| Time | Temp. | Humidity | Pressure | Rain* | Wind** | Luminosity | Snow |
|---|---|---|---|---|---|---|---|
| 1788347813 | 27.78° C | 85% | 1007.5 hPa | 0.76 mm | 0.89 m/s, 265° | 200 W/m² | - |
| 1788347752 | 27.78° C | 85% | 1007.7 hPa | 0.76 mm | 0.89 m/s, 211° | 237 W/m² | - |
| 1788347691 | 27.78° C | 84% | 1007.6 hPa | 0.76 mm | 0 m/s | 232 W/m² | - |
| 1788347630 | 28.33° C | 83% | 1007.8 hPa | 0.76 mm | 1.34 m/s, 263° | 214 W/m² | - |
| 1788347569 | 28.33° C | 82% | 1007.7 hPa | 0.76 mm | 2.24 m/s, 216° | 185 W/m² | - |
| 1788347508 | 28.33° C | 81% | 1007.6 hPa | 0.76 mm | 1.79 m/s, 284° | 165 W/m² | - |
| 1788347447 | 28.89° C | 80% | 1007.8 hPa | 0.25 mm | 1.79 m/s, 126° | 130 W/m² | - |
| 1788347386 | 28.89° C | 80% | 1007.5 hPa | 0 mm | 3.13 m/s, 215° | 117 W/m² | - |
| 1788347325 | 28.89° C | 80% | 1007.5 hPa | 0 mm | 2.68 m/s, 227° | 114 W/m² | - |
| 1788347264 | 28.89° C | 81% | 1007.6 hPa | 0 mm | 0.89 m/s, 253° | 101 W/m² | - |
| 1788347203 | 28.89° C | 81% | 1007.7 hPa | 0 mm | 0.89 m/s, 274° | 88 W/m² | - |
| 1788347142 | 28.89° C | 81% | 1007.4 hPa | 0 mm | 0.89 m/s, 270° | 85 W/m² | - |
| 1788347081 | 28.89° C | 81% | 1007.6 hPa | 0 mm | 2.24 m/s, 353° | 91 W/m² | - |
| 1788347020 | 28.89° C | 81% | 1007.3 hPa | 0 mm | 0.45 m/s, 251° | 91 W/m² | - |
| 1788346959 | 28.89° C | 81% | 1007.6 hPa | 0 mm | 0.45 m/s, 205° | 91 W/m² | - |
| 1788346898 | 28.89° C | 81% | 1007.5 hPa | 0 mm | 1.34 m/s, 118° | 88 W/m² | - |
| 1788346837 | 28.89° C | 81% | 1007.6 hPa | 0 mm | 1.34 m/s, 269° | 85 W/m² | - |
| 1788346776 | 28.89° C | 81% | 1007.5 hPa | 0 mm | 1.79 m/s, 232° | 79 W/m² | - |
| 1788346715 | 28.89° C | 81% | 1007.5 hPa | 0 mm | 1.34 m/s, 223° | 69 W/m² | - |
| 1788346654 | 28.89° C | 81% | 1007.6 hPa | 0 mm | 1.34 m/s, 180° | 71 W/m² | - |
| 1788346593 | 28.89° C | 81% | 1007.4 hPa | 0 mm | 0.45 m/s, 324° | 84 W/m² | - |
| 1788346532 | 28.89° C | 81% | 1007.5 hPa | 0 mm | 0.89 m/s, 179° | 97 W/m² | - |
| 1788346471 | 28.89° C | 81% | 1007.5 hPa | 0 mm | 1.79 m/s, 306° | 119 W/m² | - |
| 1788346410 | 29.44° C | 81% | 1007.6 hPa | 0 mm | 1.34 m/s, 260° | 141 W/m² | - |
| 1788346349 | 29.44° C | 80% | 1007.6 hPa | 0 mm | 1.34 m/s, 199° | 158 W/m² | - |
* Rain latest hour (hover to see other rain measurements)
** Current wind speed in m/s (hover to see current wind gust speed)